Main page
METAR-TAF:

METAR-TAF

Airports :

RAF Kinloss

Kinloss, Scotland

latitude: 57-39N, longitude: 003-34W, elevation: 7 m

Current weather observation

The report was made 51 minutes ago, at 03:50 UTC
Wind 14 kt from the West/Southwest
Temperature 18°C
Humidity 77%
Pressure 1009 hPa
Visibility 10 km or more

METAR: EGQK 220350Z AUTO 24014KT 9999 FEW024/// BKN050/// 18/14 Q1009

Time: 05:41 (04:41 UTC)


TAF: missing

Weather observations and forecasts of more than 4000 airports (METAR and TAF reports).

The available stations are represented by yellow and red dots on the map.

Hover mouse over dot to see the name of the station.

Then click to see weather observations and forecasts.

To change the map : click on the green buttons with a black cross to zoom in, on the green button with a dash to zoom out, or on the green arrows for adjacent maps.


METAR-TAF: